TimeCST,TemperatureF,Dew PointF,Humidity,Sea Level PressureIn,VisibilityMPH,Wind Direction,Wind SpeedMPH,Gust SpeedMPH,PrecipitationIn,Events,Conditions,WindDirDegrees,DateUTC
12:52 AM,27.0,21.9,81,29.59,10.0,West,21.9,31.1,N/A,,Overcast,260,2013-01-12 06:52:00
1:47 AM,24.8,17.6,74,29.60,10.0,West,27.6,35.7,N/A,,Overcast,270,2013-01-12 07:47:00
1:52 AM,24.1,19.0,81,29.65,10.0,West,25.3,35.7,N/A,,Overcast,270,2013-01-12 07:52:00
2:52 AM,21.0,14.0,74,29.72,8.0,West,26.5,34.5,0.00,Snow,Light Snow,270,2013-01-12 08:52:00
3:52 AM,18.0,10.0,71,29.77,9.0,West,24.2,34.5,0.00,Snow,Light Snow,260,2013-01-12 09:52:00
4:36 AM,15.8,8.6,73,29.74,10.0,West,26.5,33.4,0.00,,Scattered Clouds,270,2013-01-12 10:36:00
4:52 AM,15.1,6.1,68,29.81,10.0,West,28.8,35.7,0.00,,Clear,270,2013-01-12 10:52:00
5:52 AM,14.0,6.1,71,29.85,10.0,West,29.9,36.8,N/A,,Mostly Cloudy,280,2013-01-12 11:52:00
6:16 AM,12.2,5.0,73,29.81,10.0,West,27.6,40.3,N/A,,Scattered Clouds,280,2013-01-12 12:16:00
6:52 AM,12.9,5.0,71,29.90,10.0,West,21.9,28.8,N/A,,Partly Cloudy,280,2013-01-12 12:52:00
7:10 AM,12.2,6.8,79,29.86,10.0,West,20.7,27.6,N/A,,Mostly Cloudy,280,2013-01-12 13:10:00
7:52 AM,12.9,3.9,67,29.93,10.0,West,19.6,-,N/A,,Partly Cloudy,280,2013-01-12 13:52:00
8:52 AM,12.9,3.9,67,29.96,10.0,West,23.0,26.5,N/A,,Scattered Clouds,280,2013-01-12 14:52:00
9:43 AM,12.2,5.0,73,29.93,10.0,WNW,20.7,26.5,N/A,,Mostly Cloudy,290,2013-01-12 15:43:00
9:52 AM,14.0,5.0,67,30.00,10.0,WNW,21.9,-,N/A,,Mostly Cloudy,290,2013-01-12 15:52:00
11:52 AM,14.0,5.0,67,30.03,9.0,WNW,19.6,24.2,0.00,,Overcast,290,2013-01-12 17:52:00
12:52 PM,14.0,3.9,64,30.05,10.0,West,18.4,27.6,N/A,,Overcast,270,2013-01-12 18:52:00
1:52 PM,14.0,5.0,67,30.04,4.0,WNW,25.3,29.9,0.00,Snow,Light Snow,290,2013-01-12 19:52:00
2:18 PM,14.0,3.2,62,29.99,10.0,WNW,23.0,31.1,0.00,,Scattered Clouds,300,2013-01-12 20:18:00
2:27 PM,14.0,3.2,62,29.99,9.0,West,21.9,31.1,0.00,,Mostly Cloudy,280,2013-01-12 20:27:00
2:52 PM,14.0,3.9,64,30.04,10.0,WNW,26.5,34.5,0.00,,Mostly Cloudy,300,2013-01-12 20:52:00
3:06 PM,12.2,3.2,67,29.97,10.0,WNW,21.9,-,N/A,,Partly Cloudy,300,2013-01-12 21:06:00
3:52 PM,12.9,1.9,62,30.08,10.0,WNW,19.6,-,N/A,,Partly Cloudy,290,2013-01-12 21:52:00
4:52 PM,12.0,3.9,70,30.09,10.0,WNW,16.1,-,N/A,,Mostly Cloudy,290,2013-01-12 22:52:00
5:02 PM,12.2,5.0,73,30.02,2.5,WNW,13.8,-,0.00,Snow,Light Snow,290,2013-01-12 23:02:00
5:20 PM,10.4,5.0,79,30.03,7.0,WNW,13.8,-,0.00,,Mostly Cloudy,290,2013-01-12 23:20:00
5:38 PM,10.4,5.0,79,30.01,7.0,WNW,13.8,-,0.00,,Scattered Clouds,300,2013-01-12 23:38:00
5:47 PM,10.4,5.0,79,30.01,5.0,WNW,15.0,-,0.00,Snow,Light Snow,290,2013-01-12 23:47:00
5:52 PM,10.9,3.9,73,30.09,7.0,WNW,18.4,-,0.00,,Scattered Clouds,300,2013-01-12 23:52:00
6:52 PM,10.0,3.0,73,30.11,10.0,WNW,15.0,-,N/A,,Scattered Clouds,300,2013-01-13 00:52:00
7:06 PM,10.4,3.2,73,30.05,10.0,WNW,16.1,-,N/A,,Mostly Cloudy,300,2013-01-13 01:06:00
7:31 PM,8.6,1.4,73,30.05,10.0,WNW,12.7,-,N/A,,Scattered Clouds,300,2013-01-13 01:31:00
7:52 PM,9.0,1.0,70,30.14,10.0,WNW,12.7,-,N/A,,Clear,300,2013-01-13 01:52:00
8:28 PM,8.6,1.4,73,30.06,10.0,NW,11.5,-,N/A,,Mostly Cloudy,310,2013-01-13 02:28:00
8:52 PM,9.0,1.0,70,30.14,10.0,WNW,13.8,-,N/A,,Overcast,300,2013-01-13 02:52:00
9:10 PM,8.6,1.4,73,30.05,10.0,WNW,12.7,-,N/A,,Scattered Clouds,300,2013-01-13 03:10:00
9:52 PM,8.1,1.0,73,30.13,10.0,NW,11.5,-,N/A,,Partly Cloudy,310,2013-01-13 03:52:00
10:36 PM,6.8,1.4,79,30.05,10.0,NW,13.8,-,N/A,,Mostly Cloudy,310,2013-01-13 04:36:00
10:52 PM,8.1,1.9,76,30.14,4.0,NNW,13.8,-,0.00,Snow,Light Snow,330,2013-01-13 04:52:00
11:52 PM,6.1,-0.0,76,30.14,10.0,NNW,13.8,-,0.00,,Mostly Cloudy,340,2013-01-13 05:52:00